2021-015V (47718 NORAD) Tracking and Keplerian Element Data

This shows tracking and keplerian element data for the satellite.

Feedback or suggestion? Click here.




ElementValue
Catalog47718
Name2021-015V
Epoch Orbit447
Epoch Day88.72157105
Epoch Year2021
RAAN163.7635
Inclination97.461
Eccentricity0.0011905
Argument of Perigee176.5562
Mean Anonmoly183.6011
Mean Motion15.2099294
Decay Rate-7E-07
L11 47718U 21015V 21088.72157105 -.00000070 00000-0 00000-0 0 9991
L22 47718 97.4610 163.7635 0011905 176.5562 183.6011 15.20992940 4471

Live tracking and technical data element details for 2021-015V (NORAD 47718). 2021-015V can be tracked NOW for your location showing map with azimuth and elevation plus other details from your city location.

Track the satellite on the map from your city or location and see movement details for azimuth, elevation, latitude, longitude, range, height, and movement on the map or in text.







IsCatalogInMostPopularTable: catalog: 47718, numindb: 7
Update: records affected: 1



GetName: 47718 2021-015V

Hit Count: updated at: Sat, 10 Apr 2021 18:48:38 GMT